DW9758 Weather Reports


Display with metric or nautical units.
time (UTC)temp
F
wind
direction
speed
MPH
gust
MPH
rain 1hr
in
rain 24hr
in
rain mn
in
humidity
%
barometer
mb
20260502123013 71 51 0.0 1.0 0.00 0.00 0.00 43 1018.0
20260502121511 71 84 1.0 6.0 0.00 0.00 0.00 47 1018.2
20260502114508 70 97 0.0 0.0 0.00 0.00 0.00 46 1018.5
20260502113005 70 100 2.0 7.0 0.00 0.00 0.00 43 1018.8
20260502111503 70 105 0.0 7.0 0.00 0.00 0.00 45 1019.0
20260502110003 71 48 3.0 8.0 0.00 0.00 0.00 47 1019.1
20260502104501 70 76 0.0 1.0 0.00 0.00 0.00 47 1019.2
20260502103058 69 223 0.0 0.0 0.00 0.00 0.00 47 1019.4
20260502101601 68 211 0.0 0.0 0.00 0.00 0.00 48 1019.6
20260502071525 59 181 0.0 0.0 0.00 0.00 0.00 66 1020.9
20260502070022 58 181 0.0 0.0 0.00 0.00 0.00 63 1021.1
20260502064517 57 183 0.0 0.0 0.00 0.00 0.00 71 1021.1
20260502063016 56 62 0.0 0.0 0.00 0.00 0.00 67 1021.2
20260502061517 55 62 0.0 0.0 0.00 0.00 0.00 69 1021.2
20260502060012 56 61 0.0 0.0 0.00 0.00 0.00 68 1021.4
20260502054507 54 61 0.0 0.0 0.00 0.00 0.00 72 1021.3
20260502053058 52 61 0.0 0.0 0.00 0.00 0.00 72 1021.4
20260502051559 49 61 0.0 1.0 0.00 0.00 0.00 74 1021.4
20260502050047 47 5 0.0 0.0 0.00 0.00 0.00 77 1021.4
20260502044546 45 5 0.0 0.0 0.00 0.00 0.00 79 1021.4
20260502043046 45 5 0.0 0.0 0.00 0.00 0.00 77 1021.5
20260502041544 45 5 0.0 0.0 0.00 0.00 0.00 76 1021.5
20260502040043 45 5 0.0 0.0 0.00 0.00 0.00 77 1021.3
20260502034542 45 5 0.0 2.0 0.00 0.00 0.00 76 1021.3
20260502033041 45 5 0.0 0.0 0.00 0.00 0.00 76 1021.3
20260502031540 46 5 0.0 0.0 0.00 0.00 0.00 75 1021.4
20260502030045 46 5 0.0 0.0 0.00 0.00 0.00 74 1021.4
20260502024538 46 5 0.0 0.0 0.00 0.00 0.00 75 1021.5
20260502023038 46 5 0.0 0.0 0.00 0.00 0.00 75 1021.3
20260502021536 46 5 0.0 0.0 0.00 0.00 0.00 75 1021.6
20260502020036 46 5 0.0 0.0 0.00 0.00 0.00 74 1021.5
20260502014536 46 5 0.0 0.0 0.00 0.00 0.00 74 1021.5
20260502013034 47 5 0.0 0.0 0.00 0.00 0.00 73 1021.6
20260502011533 46 5 0.0 0.0 0.00 0.00 0.00 74 1021.6
20260502010032 46 5 0.0 0.0 0.00 0.00 0.00 74 1021.6
20260502004531 46 5 0.0 0.0 0.00 0.00 0.00 74 1021.8
20260502003028 46 5 0.0 0.0 0.00 0.00 0.00 74 1022.0
20260502001527 46 5 0.0 0.0 0.00 0.00 0.00 73 1022.1
20260502000024 46 5 0.0 0.0 0.00 0.00 0.00 73 1022.2
20260501234524 46 5 0.0 0.0 0.00 0.00 0.00 74 1022.2
20260501233022 46 47 0.0 0.0 0.00 0.00 0.00 73 1022.4
20260501231520 47 47 0.0 0.0 0.00 0.00 0.00 73 1022.4
20260501230018 47 51 0.0 0.0 0.00 0.00 0.00 73 1022.5
20260501224517 47 51 0.0 0.0 0.00 0.00 0.00 73 1022.5
20260501223016 47 51 0.0 0.0 0.00 0.00 0.00 74 1022.6
20260501221516 47 51 0.0 0.0 0.00 0.00 0.00 73 1022.6
20260501220014 47 53 0.0 0.0 0.00 0.00 0.00 74 1022.6
20260501214514 47 347 0.0 0.0 0.00 0.00 0.00 76 1022.7
20260501213014 47 273 0.0 0.0 0.00 0.00 0.00 76 1022.7
20260501211511 48 273 0.0 0.0 0.00 0.00 0.00 74 1022.7
20260501210010 48 273 0.0 0.0 0.00 0.00 0.00 75 1022.7
20260501204510 48 273 0.0 0.0 0.00 0.00 0.00 74 1022.7
20260501203013 48 273 0.0 0.0 0.00 0.00 0.00 74 1022.6
20260501201508 49 273 0.0 0.0 0.00 0.00 0.00 73 1022.7
20260501200008 50 273 0.0 0.0 0.00 0.00 0.00 73 1022.6
20260501194512 50 273 0.0 0.0 0.00 0.00 0.00 72 1022.5
20260501193006 51 273 0.0 0.0 0.00 0.00 0.00 71 1022.4
20260501191506 52 273 0.0 0.0 0.00 0.00 0.00 70 1022.2
20260501190009 52 273 0.0 0.0 0.00 0.00 0.00 68 1022.2
20260501184509 53 273 0.0 0.0 0.00 0.00 0.00 67 1022.0
20260501183005 55 273 0.0 2.0 0.00 0.00 0.00 64 1021.8
20260501181503 56 268 0.0 0.0 0.00 0.00 0.00 63 1021.6
20260501180003 58 314 0.0 2.0 0.00 0.00 0.00 59 1021.5
20260501174502 59 335 0.0 0.0 0.00 0.00 0.00 56 1021.5
20260501173003 61 351 1.0 6.0 0.00 0.00 0.00 53 1021.1
20260501171501 62 47 0.0 7.0 0.00 0.00 0.00 49 1021.3
20260501170100 64 3 0.0 0.0 0.00 0.00 0.00 51 1021.3
20260501164600 64 74 0.0 3.0 0.00 0.00 0.00 46 1021.3
20260501163102 64 78 0.0 0.0 0.00 0.00 0.00 49 1021.6
20260501161558 65 72 2.0 8.0 0.00 0.00 0.00 47 1021.5
20260501160101 66 81 0.0 5.0 0.00 0.00 0.00 49 1021.7
20260501154558 66 92 0.0 1.0 0.00 0.00 0.00 48 1021.7
20260501153113 67 62 0.0 5.0 0.00 0.00 0.00 46 1021.8
20260501151553 67 93 2.0 5.0 0.00 0.00 0.00 47 1021.8